Content
SEND FEEDBACK

Daily
Averages
Monthly
Summary
Italy

MODUGNO, ITALY


Home > Europe > Italy
Elevation: 161 feet     Latitude: 41 01N     Longitude: 016 46E

WEATHER
 
SELECT A DAY
Number of Records: 302,282;   Date Range: 7/1/96 - 11/21/14
 
SHARE

PRINT THIS DATA

[ ← Previous Day ]
WEATHER ALMANAC - FEBRUARY 5, 2013
[ Next Day → ]
[ °C ]   °F
Weather ElementAverageHighLow
Temperature46.1 °F60.8 °F (1:20 pm) (2:20 pm)
Dewpoint31.6 °F41 °F (2:50 pm) (7:00 pm)
Humidity60.4 %87 % (12:50 am)23 % (1:50 pm)
Barometer29.94 in30.12 in (12:50 am)29.77 in (10:50 pm)
Wind Speed6.9 mph10.4 mph (4:50 pm)
Weather ElementAverage
Visibility4.5 mi
Wind DirectionSSW (197.2 °)

Weather ElementTotal
Precipitation---
Heating Degree Days34.6 (Base 65)
Averaged from 46 records on February 5, 2013
WEATHER CONDITIONS BREAKOUT
WIND DIRECTION BREAKOUT
WEATHER BY HOUR - FEBRUARY 5, 2013
[ °C ]   °F
Local TimeTemperatureDewpointHumidityBarometerVisibilityWind DirectionWind SpeedGust SpeedPrecipitationEventsConditions
12:50 AM35.6 °F32.0 °F87 %30.12 inSW (220°)8.1 mphClear
1:20 AM35.6 °F32.0 °F87 %30.09 inSW (220°)6.9 mphClear
1:50 AM35.6 °F32.0 °F87 %30.09 inSW (220°)6.9 mphClear
2:20 AM37.4 °F32.0 °F81 %30.09 inSW (230°)6.9 mphClear
2:50 AM37.4 °F32.0 °F81 %30.09 inSW (230°)6.9 mphClear
3:20 AM35.6 °F30.2 °F81 %30.09 inSW (220°)6.9 mphClear
3:50 AM35.6 °F30.2 °F81 %30.06 inSW (220°)8.1 mphClear
4:20 AM35.6 °F30.2 °F81 %30.06 inSW (220°)8.1 mphClear
4:50 AM35.6 °F30.2 °F81 %30.06 inSW (220°)8.1 mphClear
5:50 AM33.8 °F30.2 °F87 %30.04 inSW (220°)8.1 mphClear
6:20 AM33.8 °F28.4 °F81 %30.04 inSW (220°)6.9 mphClear
6:50 AM33.8 °F28.4 °F81 %30.04 in4.3 miSW (220°)8.1 mph
7:20 AM33.8 °F28.4 °F81 %30.04 in4.3 miSW (220°)8.1 mph
7:50 AM33.8 °F28.4 °F81 %30.04 in4.3 miSSW (210°)6.9 mph
8:20 AM37.4 °F28.4 °F70 %30.04 in5.0 miSSW (210°)5.8 mph
8:50 AM42.8 °F30.2 °F61 %30.04 inSSW (210°)4.6 mphClear
9:20 AM48.2 °F33.8 °F58 %30.04 inSouth (190°)4.6 mphClear
9:50 AM51.8 °F37.4 °F58 %30.01 inSouth (180°)5.8 mphClear
10:20 AM53.6 °F37.4 °F54 %30.01 inSSE (160°)6.9 mphClear
10:50 AM53.6 °F35.6 °F51 %30.01 inSSE (160°)5.8 mphClear
11:20 AM55.4 °F33.8 °F44 %29.98 inSSE (150°)5.8 mphClear
11:50 AM55.4 °F28.4 °F36 %29.98 inSE (140°)5.8 mphClear
12:20 PM57.2 °F33.8 °F41 %29.95 inSSE (150°)5.8 mphClear
12:50 PM59.0 °F30.2 °F34 %29.92 inSE (140°)6.9 mphClear
1:20 PM60.8 °F28.4 °F29 %29.92 inSSE (160°)5.8 mphClear
1:50 PM60.8 °F23.0 °F23 %29.89 inSSE (160°)4.6 mphClear
2:20 PM0.0 °F0.0 °F29.89 inVariable3.5 mphClear
2:50 PM57.2 °F41.0 °F55 %29.86 inEast (80°)9.2 mphClear
3:20 PM60.8 °F26.6 °F27 %29.86 inVariable4.6 mphClear
3:50 PM60.8 °F28.4 °F29 %29.86 inSW (220°)8.1 mphClear
4:20 PM59.0 °F28.4 °F31 %29.83 inWSW (240°)8.1 mphClear
4:50 PM59.0 °F28.4 °F31 %29.83 inWSW (240°)10.4 mphClear
5:20 PM55.4 °F30.2 °F38 %29.83 inWSW (250°)9.2 mphClear
5:50 PM53.6 °F32.0 °F44 %29.83 inWest (260°)4.6 mphClear
6:20 PM51.8 °F32.0 °F47 %29.83 inSSW (210°)5.8 mphClear
6:50 PM50.0 °F33.8 °F54 %29.83 inSW (230°)5.8 mphClear
7:20 PM50.0 °F35.6 °F58 %29.83 inWSW (240°)8.1 mphClear
7:50 PM50.0 °F35.6 °F58 %29.83 inWSW (240°)10.4 mphClear
8:20 PM50.0 °F37.4 °F62 %29.83 inSW (230°)6.9 mphClear
8:50 PM50.0 °F37.4 °F62 %29.80 inSW (230°)9.2 mphClear
9:20 PM50.0 °F37.4 °F62 %29.80 inSSW (210°)6.9 mphClear
9:50 PM48.2 °F35.6 °F62 %29.80 inSSW (210°)5.8 mphClear
10:20 PM46.4 °F37.4 °F71 %29.80 inSSW (210°)5.8 mphClear
10:50 PM46.4 °F37.4 °F71 %29.77 inSW (220°)5.8 mphClear
11:20 PM46.4 °F37.4 °F71 %29.77 inSW (220°)6.9 mphClear
11:50 PM48.2 °F37.4 °F66 %29.77 inSW (230°)10.4 mphClear
Hourly data recorded from LIBD, located miles away from Modugno, Italy







STORIES FROM OUR PARTNERS